Tracking 18840 objects as of 20-November-2017
HD Live streaming from Space Station
objects crossing your sky now

SL-14 R/B

Track SL-14 R/B now!
10-day predictions
SL-14 R/B is classified as:


NORAD ID: 16882
Int'l Code: 1986-055B
Perigee: 613.7 km
Apogee: 639.5 km
Inclination: 82.5 °
Period: 97.1 minutes
Semi major axis: 6997 km
RCS: 4.759 m2 (large)
Launch date: July 28, 1986
Source: Commonwealth of Independent States (former USSR) (CIS)
Launch site: PLESETSK MISSILE AND SPACE COMPLEX (PKMTR)

Note: This is a ROCKET BODY
aabbcc
Your satellite tracking list
Your tracking list is empty




NASA's NSSDC Master Catalog

Two Line Element Set (TLE):
1 16882U 86055B   17323.89349084  .00000117  00000-0  11471-4 0  9997
2 16882  82.5215  87.7889 0018443 252.3847 227.8758 14.83140845690965
Source of the keplerian elements: AFSPC